7 * 24
多渠道服务支持
STARLINK-32516 是 SpaceX Starlink 卫星互联网项目中的一颗低轨卫星,属于第二代 Starlink 卫星星座的一部分。该卫星于2023年发射,旨在为全球用户提供高速、低延迟的宽带互联网服务。它运行在约550公里高的近地轨道,配备先进通信设备和激光链路,以提升网络性能和连接稳定性。作为 Starlink 网络的重要节点,STARLINK-32516 有助于扩大覆盖范围,特别是在偏远和网络基础设施薄弱的地区。
美国
(US)
| 数据来源 | 国际轨道数据 |
| 星历时间: | 2025-12-19T18:51:39+0800 23小时前 查看轨道信息 |
| 半长轴: | 6950.161km |
| 偏心率: | 0.0003249 |
| 轨道倾角: | 70.002° |
| 近地点辐角 | 274.930° |
| 升交点赤经 | 6.865° |
| 平近点角 | 85.149° |
| 近地点: | 569.765km |
| 远地点: | 574.283km |
| 周期: | 96.106分钟 |
| 每日圈数: | 14.983405 |